リニア彗星

C/2012 Y1 ( LINEAR )

English version
Home page
Updated on September 8, 2013

---------------------------------------------------------------------

・ プロフィール

発見日 2012年12月18日
発見光度 19.1等
発見者 Lincoln Laboratory Near-Earth Asteroid Research project

・ 写真集

・ 軌道要素

Epoch 2013 Jan. 28.0 TT = JDT 2456320.5
T 2013 Jan. 18.19775 TT                                 MPC
q   2.0162038            (2000.0)            P               Q
z  +0.0263645      Peri.  268.83196     -0.19405696     -0.97756115
 +/-0.0000000      Node   193.24426     +0.98035715     -0.19025294
e   0.9468438      Incl.   20.95945     +0.03523862     -0.09043236
From 126 observations 2012 Dec. 18-2013 Apr. 3, mean residual 0".5.

・ 光度変化

        m1 = 14.0 + 5 logΔ + 10.0 log r(t - 60)

---------------------------------------------------------------------

軌道要素はM.P.E.C. 2013-H38に掲載されたものです。
光度グラフはComet for Windowsで作成したものです。

---------------------------------------------------------------------

Copyright(C) Seiichi Yoshida (comet@aerith.net). All rights reserved.